[[{"header":{"parameterUnit":"m.s-1","parameterCategory":1,"la1":30.2991,"la2":30.254,"lo1":-89.0895,"lo2":-89.0444,"dy":0.0017,"dx":0.0017,"nx":28,"ny":28,"refTime":"2024-07-10T03:00:00:Z","depth":0,"parameterNumber":2,"parameterNumberName":"U-component_of_WINDS"},"data":[0,0,0,0,0,0,0,0,0,0,0,0,0,0,0,0,0,0,0,0,0,0,0,0,0,0,0,0,0,0,0,0,0,0,0,0,0,0,0,0,0,0,0,0,0,0,0,0,0,0,0,0,0,0,0,0,0,0,1.0884,1.0884,0,1.0903,1.0903,1.0903,1.0877,1.0876,1.0875,1.0875,1.0894,1.0895,1.0896,0,0,0,0,0,0,0,0,0,0,0,0,0,1.0824,1.0825,1.0884,1.0884,1.0884,1.0903,1.0903,1.0903,1.0878,1.0876,1.0875,1.0874,1.0893,1.0895,1.0897,0,0,0,0,0,0,0,0,0,0,0,0,0,1.0847,1.0825,1.0884,1.0873,1.0873,1.0903,1.0903,1.0903,1.0878,1.0876,1.0875,1.0874,1.0893,1.0895,1.0897,1.0938,0,0,1.0903,1.0904,0,0,0,0,0,0,0,0,1.0846,1.0849,1.0875,1.0874,1.0873,1.0886,1.0889,1.0915,1.0878,1.0876,1.0875,1.0873,1.0892,1.0894,1.0901,1.0938,1.0939,1.0903,1.0905,1.0905,1.0906,0,0,0,0,0,0,0,1.0844,1.0848,1.0891,1.0875,1.0874,1.0868,1.087,1.0894,1.0892,1.0876,1.0874,1.0877,1.0892,1.0899,1.0901,1.094,1.0903,1.0905,1.0906,1.0907,1.1012,1.1013,0,0,0,0,0,0,1.0844,1.0847,1.0891,1.0892,1.0856,1.087,1.0872,1.0884,1.0891,1.0891,1.0878,1.0875,1.0896,1.0899,1.0902,1.095,1.0905,1.0907,1.0909,1.101,1.1012,1.1014,0,0,0,0,0,0,1.0843,1.0848,1.089,1.0869,1.0874,1.0873,1.0886,1.0885,1.0892,1.0893,1.0892,1.0886,1.0895,1.0899,1.0929,1.095,1.0908,1.091,1.1008,1.1011,1.1013,1.1047,0,0,0,0,0,0,1.0841,1.0848,1.0863,1.087,1.0875,1.0917,1.0887,1.0886,1.0896,1.0893,1.09,1.09,1.0894,1.0926,1.0931,1.0953,1.0912,1.1006,1.1009,1.1012,1.1044,1.105,1.1056,0,0,0,0,0,1.0839,1.0872,1.0864,1.087,1.0894,1.0918,1.0921,1.0914,1.0898,1.0913,1.0914,1.09,1.0947,1.0929,1.0935,1.0957,1.1005,1.1009,1.1012,1.1041,1.1049,1.1056,0,0,0,0,0,0,1.0868,1.0873,1.0864,1.09,1.0909,1.0914,1.0933,1.0923,1.0936,1.0933,1.0923,1.0925,1.0957,1.096,1.094,1.0997,1.0973,1.0978,1.0994,1.1001,1.1007,1.1005,1.0913,0,0,0,0,0,1.0878,1.0897,1.09,1.0932,1.0937,1.0934,1.0944,1.0938,1.0947,1.0951,1.0953,1.0962,1.0979,1.099,1.1006,1.1045,1.1046,1.1063,1.1069,1.1073,1.1077,1.1098,1.1106,1.1025,1.1025,1.1025,0,0,1.09,1.0905,1.0918,1.0938,1.0944,1.0964,1.0938,1.0959,1.0974,1.0954,1.0982,1.0985,1.0994,1.1029,1.1044,1.1032,1.11,1.1078,1.1082,1.1083,1.1102,1.111,1.1117,1.1027,1.1027,1.1027,0,0,1.095,1.0956,1.0983,1.099,1.1,1.0998,1.1004,1.1011,1.1012,1.1041,1.1026,1.1043,1.1072,1.108,1.1087,1.1141,1.1129,1.1146,1.1176,1.1197,1.1203,1.1209,1.1228,1.1235,1.115,1.1151,1.1151,0,1.0976,1.1005,1.0998,1.1021,1.103,1.1013,1.1041,1.1048,1.1062,1.1069,1.1055,1.1092,1.1097,1.1133,1.1147,1.1153,1.116,1.1145,1.1203,1.1208,1.1214,1.1232,1.1239,1.1153,1.1152,1.1152,1.1152,0,1.1036,1.1057,1.1078,1.1093,1.1104,1.1129,1.1126,1.1138,1.1131,1.1131,1.1161,1.1166,1.1183,1.1191,1.1184,1.1226,1.1219,1.1204,1.118,1.1223,1.124,1.1247,1.1156,1.1155,1.1154,1.1154,0,0,1.1104,1.1115,1.1123,1.113,1.114,1.1155,1.118,1.1196,1.1208,1.1218,1.1238,1.1264,1.1251,1.126,1.1254,1.1272,1.1314,1.1255,1.1255,1.1266,1.136,1.1371,1.1379,1.1306,1.1307,1.1308,1.1359,0,1.1154,1.1197,1.1191,1.1232,1.1251,1.1235,1.1257,1.1265,1.1266,1.1282,1.1282,1.13,1.1282,1.1287,1.1304,1.1305,1.1333,1.1301,1.1324,1.1325,1.1322,1.1388,1.1399,1.1447,1.1366,1.1367,1.1368,0,1.1218,1.1231,1.1274,1.1282,1.1289,1.1309,1.1324,1.1339,1.1349,1.1348,1.1358,1.1349,1.1373,1.1349,1.1383,1.1362,1.1371,1.1373,1.1374,1.1376,1.1349,1.1391,1.1462,1.1469,1.1378,1.1377,1.1377,0,1.1263,1.1292,1.1321,1.1327,1.1337,1.1351,1.1355,1.1363,1.1374,1.1387,1.1394,1.1409,1.1418,1.143,1.1426,1.1409,1.146,1.1436,1.146,1.146,1.1471,1.147,1.1545,1.1478,1.1478,1.1478,1.1477,0,1.1319,1.1346,1.1342,1.136,1.1389,1.1383,1.1412,1.1415,1.1422,1.144,1.1428,1.1445,1.1438,1.1455,1.1452,1.148,1.1484,1.1484,1.1483,1.1485,1.1485,1.149,1.1487,1.1479,1.1479,1.1479,1.1478,0,1.1374,1.1373,1.1404,1.141,1.1413,1.1434,1.144,1.1457,1.1457,1.148,1.1485,1.1484,1.1504,1.1501,1.1522,1.152,1.1555,1.155,1.1552,1.1551,1.1575,1.1573,1.1655,1.1665,1.1592,1.1593,1.1593,0,1.141,1.143,1.1439,1.1451,1.1457,1.1475,1.1486,1.148,1.1492,1.1505,1.152,1.1538,1.1553,1.1584,1.1586,1.1602,1.1597,1.1625,1.1599,1.1601,1.1597,1.1596,1.1597,1.1629,1.163,1.1631,1.1631,0,1.1474,1.1472,1.1488,1.1504,1.1518,1.153,1.1541,1.1551,1.1546,1.156,1.158,1.1591,1.1613,1.1631,1.1647,1.1651,1.1641,1.164,1.1646,1.1648,1.1648,1.1648,1.1565,1.1638,1.1637,1.1637,1.1636,1.1636,1.152,1.1537,1.1547,1.1565,1.1573,1.1584,1.16,1.1602,1.1619,1.1636,1.1632,1.1654,1.1663,1.1683,1.1689,1.1707,1.1696,1.1706,1.1708,1.171,1.1713,1.1646,1.1709,1.1709,1.1709,1.1709,1.1709,0,1.1583,1.1588,1.1605,1.1621,1.1636,1.1625,1.1637,1.165,1.167,1.168,1.1694,1.1717,1.1735,1.1738,1.1755,1.1768,1.1763,1.1772,1.1771,1.1772,1.1721,1.1714,1.1776,1.1776,1.1776,1.1776,1.1776,1.1776,1.1617,1.1646,1.1646,1.1678,1.1683,1.1705,1.1713,1.1723,1.1731,1.1757,1.1772,1.1774,1.1781,1.1798,1.1814,1.1814,1.1821,1.1832,1.183,1.1783,1.1776,1.177,1.1763,1.1833,1.1833,1.188,1.188,1.188]},{"header":{"parameterUnit":"m.s-1","parameterCategory":1,"la1":30.2991,"la2":30.254,"lo1":-89.0895,"lo2":-89.0444,"dy":0.0017,"dx":0.0017,"nx":28,"ny":28,"refTime":"2024-07-10T03:00:00:Z","depth":0,"parameterNumber":3,"parameterNumberName":"V-component_of_WINDS"},"data":[0,0,0,0,0,0,0,0,0,0,0,0,0,0,0,0,0,0,0,0,0,0,0,0,0,0,0,0,0,0,0,0,0,0,0,0,0,0,0,0,0,0,0,0,0,0,0,0,0,0,0,0,0,0,0,0,0,0,-2.1768,-2.1769,0,-2.1856,-2.1857,-2.1858,-2.1841,-2.184,-2.1838,-2.1837,-2.1928,-2.1931,-2.1935,0,0,0,0,0,0,0,0,0,0,0,0,0,-2.1587,-2.1591,-2.1768,-2.1769,-2.177,-2.1856,-2.1857,-2.1858,-2.1842,-2.184,-2.1838,-2.1836,-2.1926,-2.1931,-2.1936,0,0,0,0,0,0,0,0,0,0,0,0,0,-2.167,-2.1592,-2.1768,-2.1772,-2.1774,-2.1856,-2.1857,-2.1858,-2.1842,-2.184,-2.1837,-2.1835,-2.1925,-2.193,-2.1936,-2.202,0,0,-2.1954,-2.1957,0,0,0,0,0,0,0,0,-2.1665,-2.1676,-2.1771,-2.1772,-2.1774,-2.1835,-2.1827,-2.1913,-2.1843,-2.1816,-2.1837,-2.1834,-2.1899,-2.1907,-2.1928,-2.2024,-2.2028,-2.1955,-2.1958,-2.1961,-2.1962,0,0,0,0,0,0,0,-2.1659,-2.1672,-2.1803,-2.1772,-2.1774,-2.177,-2.1779,-2.1843,-2.187,-2.1818,-2.1817,-2.1828,-2.1899,-2.1923,-2.193,-2.2029,-2.1954,-2.196,-2.1963,-2.1965,-2.2197,-2.22,0,0,0,0,0,0,-2.1652,-2.1668,-2.18,-2.1806,-2.1712,-2.1775,-2.1786,-2.1818,-2.1869,-2.1874,-2.183,-2.1827,-2.1914,-2.1924,-2.1934,-2.2034,-2.1961,-2.1966,-2.1969,-2.2195,-2.2198,-2.2201,0,0,0,0,0,0,-2.1648,-2.1664,-2.1797,-2.1736,-2.1753,-2.1781,-2.1818,-2.1821,-2.1844,-2.1878,-2.1882,-2.1849,-2.1912,-2.1925,-2.1998,-2.2037,-2.1969,-2.1974,-2.2192,-2.2196,-2.22,-2.2237,0,0,0,0,0,0,-2.1643,-2.1663,-2.1694,-2.1737,-2.1756,-2.186,-2.182,-2.1824,-2.1854,-2.1851,-2.1897,-2.1902,-2.1912,-2.199,-2.2004,-2.2044,-2.1979,-2.2188,-2.2194,-2.2198,-2.2232,-2.2242,-2.225,0,0,0,0,0,-2.1637,-2.1702,-2.1696,-2.1712,-2.1797,-2.1862,-2.1873,-2.1882,-2.1858,-2.189,-2.1911,-2.1901,-2.2031,-2.1997,-2.2013,-2.2056,-2.2186,-2.2192,-2.2198,-2.2229,-2.224,-2.225,0,0,0,0,0,0,-2.1663,-2.1707,-2.1702,-2.1783,-2.1819,-2.1859,-2.19,-2.1894,-2.1938,-2.1934,-2.1944,-2.1954,-2.2028,-2.2049,-2.2011,-2.2139,-2.2105,-2.2114,-2.2123,-2.2134,-2.2142,-2.2136,-2.1983,0,0,0,0,0,-2.1679,-2.1728,-2.1764,-2.1832,-2.185,-2.1872,-2.1901,-2.1905,-2.1943,-2.1958,-2.1985,-2.2022,-2.2072,-2.2104,-2.2151,-2.2235,-2.2245,-2.2273,-2.2281,-2.2288,-2.2296,-2.2343,-2.2355,-2.2221,-2.2221,-2.222,0,0,-2.1711,-2.1741,-2.1771,-2.1838,-2.1866,-2.1917,-2.1885,-2.194,-2.1978,-2.1967,-2.2037,-2.2058,-2.21,-2.2179,-2.2216,-2.2199,-2.2336,-2.2296,-2.2301,-2.2306,-2.235,-2.2363,-2.2374,-2.2225,-2.2224,-2.2223,0,0,-2.1795,-2.1823,-2.1882,-2.1911,-2.1955,-2.1969,-2.1983,-2.2025,-2.2038,-2.2109,-2.2101,-2.2146,-2.2231,-2.2262,-2.2288,-2.2384,-2.2376,-2.2399,-2.2445,-2.249,-2.25,-2.251,-2.2544,-2.2556,-2.2407,-2.2408,-2.2408,0,-2.183,-2.1906,-2.1914,-2.197,-2.1999,-2.1991,-2.2051,-2.2079,-2.2136,-2.2157,-2.2137,-2.2244,-2.2272,-2.2358,-2.2381,-2.2403,-2.242,-2.2394,-2.2498,-2.2508,-2.2517,-2.255,-2.2562,-2.241,-2.241,-2.2409,-2.2409,0,-2.1946,-2.1999,-2.2042,-2.2096,-2.2131,-2.2189,-2.2206,-2.224,-2.2241,-2.2257,-2.2329,-2.2363,-2.2416,-2.2437,-2.2439,-2.2524,-2.2512,-2.2496,-2.2461,-2.2532,-2.2563,-2.2576,-2.2414,-2.2413,-2.2412,-2.2411,0,0,-2.205,-2.2108,-2.2123,-2.2148,-2.2195,-2.2236,-2.2294,-2.2346,-2.2375,-2.2414,-2.2463,-2.2535,-2.252,-2.255,-2.2555,-2.2595,-2.2669,-2.2573,-2.2575,-2.259,-2.2764,-2.2776,-2.2791,-2.2663,-2.2666,-2.2668,-2.276,0,-2.2139,-2.224,-2.2249,-2.234,-2.2389,-2.2382,-2.2432,-2.2466,-2.2483,-2.2527,-2.2546,-2.2597,-2.2573,-2.2591,-2.263,-2.2651,-2.2704,-2.2645,-2.2709,-2.2711,-2.2699,-2.2807,-2.282,-2.2906,-2.2773,-2.2775,-2.2776,0,-2.2256,-2.2298,-2.2394,-2.2434,-2.2455,-2.25,-2.2548,-2.2591,-2.263,-2.2639,-2.2673,-2.2673,-2.2732,-2.2696,-2.2778,-2.2738,-2.2765,-2.278,-2.2783,-2.279,-2.2748,-2.2816,-2.2933,-2.2946,-2.2795,-2.2794,-2.2792,0,-2.2322,-2.2403,-2.2471,-2.2492,-2.254,-2.2572,-2.2594,-2.263,-2.2661,-2.2704,-2.2724,-2.2773,-2.28,-2.2838,-2.2851,-2.2823,-2.2933,-2.2898,-2.2943,-2.2943,-2.2967,-2.2965,-2.309,-2.2984,-2.2984,-2.2984,-2.2983,0,-2.242,-2.2479,-2.2501,-2.2543,-2.2609,-2.2618,-2.2684,-2.2704,-2.2736,-2.2782,-2.2779,-2.2822,-2.2837,-2.2882,-2.2893,-2.296,-2.2972,-2.2982,-2.2984,-2.2982,-2.2981,-2.3,-2.2994,-2.2987,-2.2986,-2.2986,-2.2985,0,-2.2505,-2.2522,-2.2595,-2.2635,-2.2646,-2.2693,-2.2727,-2.2768,-2.2784,-2.2842,-2.2856,-2.2881,-2.2935,-2.2952,-2.3017,-2.3024,-2.3102,-2.3099,-2.3089,-2.3089,-2.3133,-2.3129,-2.3275,-2.3295,-2.3175,-2.3177,-2.3178,0,-2.2567,-2.2612,-2.2656,-2.2686,-2.2709,-2.2758,-2.2789,-2.2801,-2.2833,-2.2881,-2.2916,-2.2969,-2.3012,-2.3098,-2.3122,-2.3172,-2.317,-2.3218,-2.3178,-2.3174,-2.3171,-2.3168,-2.3173,-2.3225,-2.3227,-2.3228,-2.3228,0,-2.2674,-2.268,-2.2725,-2.2773,-2.281,-2.2849,-2.2886,-2.2911,-2.2928,-2.2965,-2.302,-2.3053,-2.3119,-2.3172,-2.3222,-2.3245,-2.324,-2.3241,-2.3254,-2.3253,-2.3245,-2.325,-2.3109,-2.3237,-2.3237,-2.3236,-2.3235,-2.3235,-2.2749,-2.2789,-2.2826,-2.2877,-2.2906,-2.294,-2.298,-2.3001,-2.3047,-2.3101,-2.3105,-2.3164,-2.3202,-2.3269,-2.3294,-2.3341,-2.3327,-2.3346,-2.3351,-2.3356,-2.336,-2.3237,-2.335,-2.335,-2.335,-2.335,-2.3349,0,-2.2857,-2.288,-2.2926,-2.2978,-2.3018,-2.3009,-2.3049,-2.3083,-2.3135,-2.3171,-2.3213,-2.3276,-2.3327,-2.3355,-2.3406,-2.3438,-2.3437,-2.3451,-2.3449,-2.3455,-2.3369,-2.3352,-2.3451,-2.3451,-2.3451,-2.3451,-2.3451,-2.3451,-2.2917,-2.2984,-2.2995,-2.3076,-2.3099,-2.3156,-2.318,-2.3213,-2.3241,-2.3311,-2.3353,-2.3371,-2.3404,-2.3458,-2.3504,-2.3511,-2.353,-2.3546,-2.3552,-2.3471,-2.3461,-2.3451,-2.3435,-2.355,-2.355,-2.3634,-2.3635,-2.3635]}]]